Temperature
18 19 19 18 18 18 18 18 18 18 18 18 18 18 18 18 18 18 18 18 18 18 18 18 18 18 18 18 18 17 17 17 17 17 17 17 16 16 16 16 16 16 16
18 18 19 18 18 18 18 18 18 18 18 18 18 18 18 18 18 18 18 18 18 18 18 18 18 18 18 17 17 17 17 17 17 17 17 17 17 16 16 16 16 16 16
18 18 18 18 18 18 18 18 18 18 18 18 18 18 18 18 18 18 18 18 18 18 18 18 18 18 18 17 17 17 17 17 17 17 17 17 17 16 16 16 16 16 16
18 18 18 18 18 18 18 18 18 18 18 18 18 18 18 18 18 18 18 18 18 18 18 18 18 18 18 17 17 17 17 17 17 17 17 17 16 16 16 16 16 16 16
18 18 18 18 18 18 18 18 18 18 18 18 18 18 18 18 18 18 18 18 18 18 18 18 18 18 17 17 17 17 17 17 17 17 17 17 16 16 16 16 16 16 16
18 18 18 18 18 18 18 18 18 18 17 17 17 17 18 18 18 18 18 18 18 18 18 18 18 18 17 17 17 17 17 17 17 17 17 16 16 16 16 16 16 16 16
18 18 18 18 18 18 18 18 18 17 17 17 17 17 18 18 18 18 18 18 18 18 18 18 18 18 17 17 17 17 17 17 17 17 16 16 16 16 16 16 16 16 16
18 18 18 18 18 18 17 17 17 17 17 17 17 17 17 17 18 18 18 18 18 18 18 18 18 17 17 17 17 17 17 17 17 17 16 16 16 16 16 16 16 16 16
18 18 18 17 17 17 17 17 17 17 17 17 17 17 17 17 17 18 18 17 17 18 17 17 17 17 17 17 17 17 17 17 17 16 16 16 16 16 16 16 16 16 16
17 17 17 17 17 17 17 17 17 17 17 17 17 17 17 17 17 17 17 17 17 17 17 17 17 17 17 17 17 17 17 17 17 16 16 16 16 16 16 16 16 15 15
17 17 17 17 17 17 17 17 17 17 17 17 17 17 17 17 17 17 17 17 17 17 17 17 17 17 17 17 17 17 17 17 16 16 16 16 16 16 15 15 15 15 15
17 17 17 17 17 17 17 17 17 17 17 17 17 17 17 17 17 17 17 17 17 17 17 17 17 17 16 16 16 16 16 16 16 16 16 16 16 16 15 15 15 15 15
17 17 17 17 17 17 17 17 17 17 17 17 17 17 17 17 17 17 17 16 16 16 16 16 16 16 16 16 16 16 16 16 16 16 16 16 16 15 15 15 15 15 15
17 17 17 17 17 17 17 16 16 16 16 16 16 16 16 16 16 16 16 16 16 16 16 16 16 16 16 16 16 16 16 16 16 16 16 16 16 15 15 15 15 15 15
17 17 17 17 17 17 17 16 16 16 16 16 16 16 16 16 16 16 16 16 16 15 15 15 15 16 15 15 15 15 15 15 15 15 15 15 15 15 15 15 15 15 15
16 16 16 16 16 16 16 16 16 16 16 16 16 16 16 16 16 16 16 16 16 16 15 15 15 15 15 15 15 15 15 15 15 15 15 15 15 15 15 15 15 15 15
16 16 16 16 16 16 16 16 16 16 16 16 16 16 16 16 16 16 15 15 15 15 15 15 15 15 15 15 15 15 15 15 15 15 15 15 15 15 15 15 15 15 14
16 16 16 16 16 16 16 16 16 15 15 15 15 15 15 15 15 15 15 15 15 15 15 15 15 15 15 15 15 15 15 15 15 14 14 14 14 14 14 14 14 14 14
15 15 16 16 16 15 15 15 15 15 15 15 15 15 15 15 15 15 15 15 15 15 15 15 14 14 14 14 14 14 14 14 14 14 14 14 14 14 14 14 14 14 14
15 15 15 15 15 15 15 15 15 15 15 15 15 15 15 15 15 15 15 15 15 15 14 14 14 14 14 14 14 14 14 14 14 14 14 14 14 14 14 14 14 14 14
15 15 15 15 15 15 15 15 15 15 15 15 15 15 15 14 14 14 14 14 14 14 14 14 14 14 14 13 13 13 13 13 13 13 13 13 13 13 13 13 13 13 13
15 15 15 15 15 15 15 15 15 15 14 14 14 14 14 14 14 14 14 14 14 14 14 14 14 14 14 14 13 13 13 13 13 13 13 13 13 13 13 13 13 13 13
15 15 15 15 15 15 15 14 14 14 14 14 14 14 14 14 14 14 14 14 14 14 14 14 14 14 14 14 13 13 13 13 13 13 13 13 13 13 13 13 13 13 13
15 15 15 15 14 14 14 14 14 14 14 14 14 14 14 14 14 14 14 14 13 13 13 13 13 13 13 13 13 13 13 13 13 13 12 12 13 13 13 13 13 13 13
15 15 15 14 14 14 14 14 14 14 14 14 14 14 14 14 14 13 13 13 13 13 13 13 13 13 13 13 13 13 13 12 12 12 12 12 12 12 13 13 13 12 13
15 14 14 14 14 14 14 14 14 14 14 14 14 14 14 14 14 13 13 13 13 13 13 13 13 12 12 12 12 12 12 12 12 12 12 12 12 12 12 12 12 12 12
Wind_Speed
2 2 1 1 1 2 1 1 1 1 1 0 1 2 2 4 4 5 7 11 12 12 13 13 13 12 12 11 11 10 10 10 10 10 10 10 10 11 11 11 11 12 12
3 2 1 1 1 2 1 1 1 0 1 0 1 1 2 3 4 5 6 9 11 12 13 13 13 12 12 11 11 10 11 11 10 10 10 10 10 10 10 11 11 11 12
3 2 2 1 2 2 1 0 1 1 1 1 1 1 0 1 3 4 5 6 7 10 12 13 13 12 12 12 11 11 11 11 11 10 10 10 10 10 10 10 10 10 11
3 2 1 1 2 1 1 1 1 1 1 1 1 0 0 1 2 3 4 5 6 7 10 13 13 13 12 12 12 11 11 11 11 10 10 10 10 10 10 9 10 10 10
3 2 1 1 1 1 1 1 1 1 1 1 0 1 1 1 2 2 3 4 5 6 7 10 12 13 12 12 12 11 11 12 11 11 11 11 11 11 11 10 11 10 10
3 2 1 1 1 1 1 1 1 1 0 0 1 1 2 2 1 1 2 3 4 5 6 7 8 10 13 12 11 12 12 12 12 12 12 12 11 11 11 11 11 11 11
3 2 1 1 1 1 1 2 1 1 0 1 1 2 3 2 1 1 1 2 3 4 5 5 6 7 8 12 12 13 13 12 12 12 12 12 12 11 11 12 12 12 12
2 2 2 2 2 2 1 1 2 1 0 1 1 1 2 3 3 1 1 1 1 2 2 3 5 7 7 7 8 11 11 11 11 11 12 11 11 11 11 11 12 12 12
2 1 2 2 1 2 2 2 3 3 2 2 2 2 2 2 2 3 1 0 0 1 1 2 3 4 6 6 6 7 9 11 11 10 11 11 11 11 12 12 12 12 12
2 2 2 2 2 2 2 2 2 2 3 2 2 1 2 3 2 2 3 2 1 1 1 1 2 3 4 6 6 6 6 8 11 11 10 11 11 11 11 12 12 12 12
1 2 2 2 2 2 2 2 1 2 3 3 2 1 1 1 2 2 2 2 2 1 0 1 1 2 4 5 6 6 6 7 10 11 10 10 11 11 11 12 12 12 12
1 1 2 2 2 1 2 2 2 2 2 2 2 2 2 2 2 2 3 2 2 2 1 0 1 1 2 4 4 4 4 5 6 9 10 10 10 11 11 11 12 12 12
1 1 1 1 1 2 2 2 2 2 2 1 2 2 2 2 2 2 2 2 1 1 1 1 1 1 2 3 3 3 3 3 5 6 7 8 9 9 9 10 11 11 11
3 2 2 2 2 1 2 2 2 2 1 2 2 1 1 1 1 2 3 2 1 1 1 1 1 1 1 2 3 3 2 2 3 6 7 6 6 6 7 7 8 8 9
3 2 2 2 2 1 1 2 1 1 1 1 1 1 1 1 1 1 2 3 3 2 2 2 1 1 2 3 3 4 3 2 3 5 7 7 7 6 6 6 6 6 7
2 2 3 3 2 2 2 2 1 1 1 1 1 1 1 1 0 0 1 1 2 3 2 2 2 2 1 2 3 3 4 3 3 5 6 6 6 6 6 6 6 7 7
2 2 2 2 2 2 2 2 2 2 2 1 1 1 1 1 0 0 1 1 1 2 2 2 1 1 0 1 1 2 3 2 3 4 5 5 6 6 5 5 5 6 6
2 2 2 2 2 2 2 2 2 2 2 2 2 1 2 1 0 1 1 1 1 2 3 2 1 1 1 2 2 2 1 2 2 2 3 4 5 6 6 5 5 5 5
2 2 2 2 2 2 2 2 2 2 3 3 3 3 2 2 2 1 1 1 2 1 2 2 2 1 1 1 0 1 1 1 2 2 3 3 4 4 5 5 5 5 6
2 2 2 2 2 3 3 3 3 3 3 3 3 4 3 4 4 4 2 2 2 2 2 2 1 1 1 1 1 1 1 1 1 1 1 2 3 3 3 4 5 6 6
3 3 2 2 2 3 3 3 3 3 3 4 4 4 4 5 5 5 4 4 4 3 2 2 2 1 1 1 1 1 2 1 2 1 1 1 1 1 3 4 5 5 6
3 2 3 3 3 3 3 3 4 4 4 4 4 4 4 4 4 5 5 5 6 5 5 4 3 3 3 3 2 2 2 1 2 1 1 2 1 2 3 4 6 6 7
3 3 3 3 3 4 4 4 4 4 4 4 4 4 4 3 3 3 4 4 5 6 7 6 5 5 5 4 3 2 2 3 3 3 1 2 1 2 3 5 7 8 8
3 4 4 4 4 4 4 4 4 3 3 4 4 4 4 4 4 4 4 3 3 4 6 5 6 6 6 5 5 5 4 2 1 2 2 2 2 2 3 4 7 9 8
4 3 3 4 4 5 4 4 4 2 3 4 4 4 4 5 6 5 4 4 3 4 4 6 7 6 6 6 5 3 2 2 1 2 2 2 2 1 2 3 5 8 9
4 3 3 4 4 4 5 5 4 3 3 3 3 3 5 5 6 6 6 6 5 5 3 3 3 4 4 4 5 5 5 4 2 2 3 2 2 1 1 2 2 3 5
Wind_Direction
170 185 206 221 255 265 291 314 318 337 333 331 181 156 169 170 179 179 186 188 187 188 186 187 188 188 188 188 189 189 190 191 192 192 192 195 198 199 198 199 203 205 202
173 183 197 214 243 241 234 240 280 3 350 44 78 116 164 170 179 189 191 192 193 192 191 192 193 193 193 193 194 195 193 192 192 193 195 196 198 198 201 204 204 204 204
162 168 170 203 233 231 220 228 7 48 57 74 67 52 117 173 193 190 189 190 197 200 199 199 199 200 200 201 201 200 198 196 196 196 198 199 202 204 205 204 203 205 207
175 158 157 202 228 213 135 119 81 57 40 46 54 338 282 208 205 198 192 194 194 203 207 207 206 206 206 208 206 202 200 200 201 202 201 202 204 206 204 204 204 203 204
177 168 170 217 201 157 159 147 85 102 65 5 325 292 277 248 237 207 195 197 197 205 209 211 213 212 211 212 211 208 206 205 205 205 204 206 208 208 206 205 206 206 206
172 169 161 176 146 122 109 104 110 73 157 286 314 335 318 289 267 219 210 200 197 202 210 212 213 215 215 211 214 215 213 210 210 208 209 209 209 209 209 207 207 209 210
186 159 139 159 151 143 165 152 138 90 21 54 53 0 346 331 308 247 220 211 210 206 205 209 205 207 211 212 217 218 216 214 213 210 211 211 211 211 212 212 211 212 213
192 172 162 167 158 146 113 117 122 121 248 151 130 80 355 345 338 312 279 198 200 199 206 213 209 208 205 202 211 215 214 217 217 216 213 211 212 213 214 215 217 217 216
182 178 158 160 159 151 170 183 165 157 205 246 181 150 157 242 301 315 296 258 214 230 230 204 191 193 193 192 202 207 215 221 220 220 216 213 214 216 217 218 219 219 218
182 172 155 153 159 157 179 215 180 179 179 228 264 220 193 182 193 294 318 330 324 261 232 230 205 193 180 180 188 193 207 219 219 219 220 217 217 218 218 219 220 219 218
181 165 153 145 146 156 178 197 189 192 191 202 214 224 226 224 192 195 270 302 323 309 264 238 195 185 172 174 181 193 203 215 217 215 220 221 220 220 219 220 221 220 219
203 179 147 149 163 167 188 197 191 187 201 200 210 200 189 195 204 195 225 250 273 296 323 287 176 182 179 177 182 184 196 205 207 212 217 221 222 221 222 222 222 220 218
194 212 183 176 187 199 196 184 178 200 197 188 206 221 216 218 198 185 185 220 248 281 325 339 254 175 193 184 181 185 204 206 203 203 208 212 218 220 222 224 221 217 214
206 206 191 189 202 197 194 177 191 215 200 208 221 210 216 241 198 187 184 176 207 297 319 271 306 225 200 193 193 198 210 219 217 211 210 208 207 209 214 215 216 213 213
201 192 191 196 208 203 187 170 190 220 190 207 222 210 213 233 204 190 173 174 173 199 246 252 255 263 218 203 204 202 205 217 223 224 214 208 207 206 209 208 210 213 214
201 182 192 199 203 200 191 177 192 204 162 213 200 184 228 248 236 162 165 160 166 174 212 243 237 251 239 233 221 208 215 224 226 223 214 209 205 207 210 212 212 214 217
200 203 195 189 196 204 203 190 205 191 194 236 247 202 240 235 175 212 148 140 141 145 183 267 270 285 239 264 260 228 236 228 239 231 223 216 212 209 211 211 214 216 217
205 210 206 193 208 213 209 194 209 216 213 230 248 222 234 230 208 231 169 171 180 170 163 214 282 278 251 236 230 218 228 235 227 237 220 220 215 211 211 212 213 218 226
202 210 198 210 214 216 218 222 218 231 234 229 227 216 222 192 220 220 190 193 198 175 152 166 240 261 250 239 247 274 258 262 243 235 217 219 215 215 216 219 220 221 226
215 223 222 228 215 213 220 216 213 232 242 244 234 223 217 204 209 205 201 198 184 166 152 157 218 256 258 258 164 225 298 300 282 228 194 202 214 222 228 230 233 230 227
238 231 216 224 224 220 228 214 213 224 228 243 249 241 231 218 202 198 198 192 178 175 175 179 208 237 249 228 229 232 242 281 298 253 210 231 195 227 247 252 250 242 233
235 229 224 221 230 237 238 218 212 224 224 234 246 249 244 222 214 209 208 199 186 184 191 192 201 213 236 226 223 218 220 212 272 254 176 258 191 236 248 238 240 240 235
227 233 238 221 226 239 237 236 227 216 226 233 235 239 243 231 210 212 222 219 215 212 196 191 199 214 221 218 202 217 220 210 229 228 168 253 260 253 250 246 241 237 237
222 229 238 234 235 246 240 242 240 229 234 242 235 227 226 233 221 203 203 213 220 226 217 211 210 219 221 216 198 199 203 208 261 250 169 214 255 259 271 257 243 233 233
231 231 231 229 237 250 236 227 218 221 244 255 252 239 229 226 223 202 188 201 223 247 240 228 221 221 223 215 186 154 152 151 257 262 211 181 234 265 281 278 261 239 232
230 235 246 242 237 239 233 225 213 209 235 255 265 259 247 233 223 202 193 194 213 233 232 241 239 241 230 225 198 182 182 183 212 249 228 178 208 184 286 280 264 256 241
Height
1530 1530 1530 1530 1530 1530 1530 1530 1529 1529 1529 1530 1530 1530 1530 1531 1531 1532 1533 1534 1535 1535 1536 1537 1537 1538 1539 1539 1540 1540 1541 1541 1542 1543 1544 1545 1546 1547 1548 1549 1550 1550 1551
1530 1530 1530 1530 1530 1530 1530 1530 1530 1529 1530 1530 1530 1530 1530 1530 1531 1532 1532 1533 1534 1534 1535 1536 1537 1537 1538 1538 1539 1539 1540 1540 1541 1542 1542 1543 1544 1545 1546 1547 1548 1549 1550
1530 1530 1530 1530 1530 1530 1530 1530 1530 1530 1530 1529 1529 1530 1530 1530 1530 1531 1531 1532 1533 1534 1534 1534 1535 1536 1537 1537 1537 1538 1538 1539 1540 1540 1541 1542 1542 1543 1544 1545 1546 1547 1548
1530 1530 1530 1529 1530 1530 1530 1530 1530 1530 1530 1529 1529 1529 1529 1529 1530 1530 1531 1531 1532 1532 1533 1533 1534 1535 1535 1536 1536 1536 1537 1537 1538 1539 1539 1540 1540 1541 1542 1543 1543 1544 1545
1529 1529 1529 1529 1529 1530 1530 1530 1530 1530 1529 1529 1529 1529 1529 1529 1529 1529 1529 1530 1530 1531 1531 1532 1532 1533 1533 1534 1534 1534 1535 1535 1536 1536 1537 1537 1538 1539 1540 1540 1541 1542 1543
1528 1528 1528 1528 1529 1529 1529 1529 1529 1529 1529 1529 1528 1528 1528 1528 1528 1528 1528 1529 1529 1529 1530 1530 1531 1531 1532 1532 1532 1532 1533 1533 1534 1534 1535 1535 1536 1536 1537 1538 1539 1540 1540
1527 1527 1527 1527 1528 1528 1528 1528 1528 1528 1528 1528 1528 1527 1527 1527 1527 1527 1527 1528 1528 1528 1528 1529 1529 1529 1530 1530 1530 1530 1531 1531 1532 1532 1532 1533 1533 1534 1534 1535 1536 1537 1538
1525 1525 1526 1526 1527 1527 1527 1527 1527 1527 1527 1527 1527 1526 1526 1527 1526 1527 1527 1527 1526 1527 1527 1527 1527 1527 1528 1528 1528 1528 1529 1529 1529 1530 1530 1530 1531 1531 1532 1533 1534 1535 1536
1524 1524 1525 1525 1526 1526 1526 1525 1526 1526 1526 1526 1526 1526 1526 1525 1525 1525 1525 1525 1525 1525 1525 1525 1525 1525 1525 1526 1527 1527 1527 1527 1527 1527 1527 1528 1528 1529 1529 1530 1531 1532 1533
1523 1523 1524 1524 1524 1524 1524 1524 1524 1524 1524 1524 1524 1525 1525 1525 1525 1524 1524 1524 1524 1524 1523 1523 1523 1523 1524 1524 1524 1525 1525 1524 1524 1524 1525 1525 1526 1526 1527 1527 1528 1529 1530
1522 1522 1522 1522 1522 1522 1522 1522 1522 1522 1522 1522 1522 1522 1523 1523 1523 1522 1521 1522 1522 1522 1522 1522 1522 1522 1522 1522 1522 1522 1523 1522 1522 1522 1522 1523 1523 1524 1524 1525 1525 1526 1527
1520 1520 1520 1520 1520 1520 1520 1520 1520 1520 1520 1520 1520 1520 1520 1520 1520 1520 1520 1519 1520 1520 1520 1520 1520 1520 1520 1520 1520 1520 1521 1521 1520 1520 1520 1520 1521 1521 1521 1522 1522 1523 1524
1518 1518 1519 1519 1518 1519 1519 1518 1518 1518 1518 1518 1518 1518 1518 1518 1518 1518 1518 1517 1518 1518 1518 1518 1518 1519 1519 1518 1518 1518 1518 1518 1518 1518 1518 1518 1518 1519 1519 1519 1519 1520 1521
1516 1517 1517 1517 1517 1517 1517 1516 1516 1516 1516 1515 1515 1515 1515 1515 1515 1515 1515 1515 1515 1515 1515 1516 1516 1517 1517 1517 1516 1516 1516 1516 1516 1516 1515 1515 1516 1516 1516 1517 1517 1517 1518
1514 1515 1515 1515 1515 1515 1514 1514 1514 1513 1513 1513 1513 1513 1513 1513 1513 1513 1513 1513 1513 1512 1512 1513 1514 1514 1515 1515 1515 1514 1514 1514 1514 1513 1513 1513 1513 1514 1514 1515 1515 1515 1516
1512 1512 1511 1512 1512 1512 1512 1512 1511 1511 1511 1510 1510 1510 1510 1510 1510 1510 1510 1510 1511 1510 1510 1510 1511 1512 1512 1512 1512 1512 1512 1512 1512 1511 1511 1511 1511 1512 1512 1512 1513 1513 1514
1509 1509 1509 1509 1509 1509 1509 1509 1509 1509 1508 1508 1508 1508 1507 1507 1507 1508 1508 1508 1508 1508 1508 1508 1509 1509 1510 1510 1510 1510 1510 1510 1510 1510 1510 1510 1510 1510 1510 1510 1511 1511 1512
1507 1507 1506 1506 1506 1507 1507 1507 1506 1506 1506 1506 1505 1505 1505 1505 1505 1505 1505 1505 1506 1506 1506 1505 1506 1506 1507 1508 1508 1508 1507 1507 1507 1508 1508 1508 1508 1508 1508 1508 1509 1509 1510
1504 1503 1503 1503 1503 1504 1504 1504 1504 1504 1503 1503 1503 1502 1502 1502 1502 1502 1503 1503 1503 1503 1503 1503 1503 1504 1504 1505 1505 1505 1505 1505 1505 1505 1505 1506 1506 1506 1506 1506 1506 1507 1507
1501 1501 1500 1500 1500 1501 1501 1501 1501 1501 1500 1500 1500 1500 1499 1499 1499 1499 1500 1500 1500 1500 1500 1500 1501 1501 1501 1502 1502 1502 1502 1502 1503 1503 1503 1503 1503 1503 1503 1503 1504 1504 1504
1499 1499 1498 1498 1498 1498 1498 1498 1498 1498 1497 1497 1497 1496 1496 1496 1496 1496 1497 1497 1497 1497 1497 1498 1498 1498 1498 1499 1499 1500 1500 1500 1500 1500 1500 1500 1500 1500 1501 1501 1501 1501 1501
1496 1496 1496 1496 1495 1495 1495 1495 1495 1494 1494 1494 1493 1493 1493 1493 1493 1493 1494 1494 1494 1494 1494 1495 1495 1495 1496 1496 1497 1497 1497 1497 1497 1498 1498 1498 1498 1498 1498 1498 1498 1498 1498
1494 1494 1493 1493 1492 1492 1492 1492 1491 1491 1491 1490 1490 1490 1490 1490 1490 1490 1490 1491 1491 1492 1492 1493 1492 1492 1493 1493 1494 1494 1495 1494 1494 1495 1495 1494 1495 1495 1495 1495 1496 1495 1495
1492 1491 1491 1490 1489 1489 1489 1489 1489 1488 1488 1487 1487 1486 1486 1486 1486 1487 1487 1487 1488 1488 1489 1490 1490 1490 1491 1491 1492 1492 1492 1492 1492 1492 1493 1492 1492 1492 1493 1493 1493 1493 1493
1489 1488 1488 1487 1486 1486 1485 1485 1485 1485 1484 1484 1483 1483 1483 1483 1483 1484 1484 1484 1484 1485 1486 1487 1488 1488 1488 1489 1489 1489 1489 1489 1488 1489 1489 1489 1489 1489 1490 1490 1490 1490 1490
1485 1485 1484 1483 1483 1482 1482 1482 1482 1481 1480 1480 1480 1479 1479 1479 1480 1480 1480 1480 1481 1482 1483 1484 1484 1485 1485 1485 1486 1486 1486 1486 1486 1486 1486 1486 1486 1486 1486 1487 1487 1488 1488